Weather reports worldwide

Advertisment
Cherbourg, France (7024): temperature & dewpoint: 20.09.2020 13:00:00 - 26.09.2020 13:00:00 (CEST)Cherbourg, France (7024): temperature 5cm: 20.09.2020 13:00:00 - 26.09.2020 13:00:00 (CEST)Cherbourg, France (7024): temperature -20cm & temperature -100cm: 20.09.2020 13:00:00 - 26.09.2020 13:00:00 (CEST)Cherbourg, France (7024): wind speed & gusts: 20.09.2020 13:00:00 - 26.09.2020 13:00:00 (CEST)Cherbourg, France (7024): wind direction: 20.09.2020 13:00:00 - 26.09.2020 13:00:00 (CEST)Cherbourg, France (7024): reduced air pressure: 20.09.2020 13:00:00 - 26.09.2020 13:00:00 (CEST)Cherbourg, France (7024): visibility: 20.09.2020 13:00:00 - 26.09.2020 13:00:00 (CEST)Cherbourg, France (7024): sunshine duration: 20.09.2020 13:00:00 - 26.09.2020 13:00:00 (CEST)Cherbourg, France (7024): precipitation: 20.09.2020 13:00:00 - 26.09.2020 13:00:00 (CEST)
Date & Time tt [°C] td [°C] tt 5cm [°C] tt -20cm [°C] tt -100cm [°C] ff [km/h] ff [kn] fx [km/h] fx [kn] dd ppp [hPa] vv [km] sd [min] rr [mm]
26.09.2020 13:00:00 - - - - - - - - - - - - - -
26.09.2020 12:00:00 11,0 3,5 11,5 14,2 16,0 20 11 42 23 NNW 1013,7 39 48 0,0
26.09.2020 11:00:00 10,5 4,4 10,9 14,3 16,1 21 12 42 23 N 1013,8 41 12 0,0
26.09.2020 10:00:00 10,8 4,7 10,1 14,3 16,1 20 11 36 19 NNW 1013,4 18 14 0,0
26.09.2020 09:00:00 10,7 4,6 9,0 14,3 16,1 20 11 43 23 N 1013,1 41 7 0,0
26.09.2020 08:00:00 10,7 4,2 9,0 14,4 16,1 20 11 43 23 NNW 1012,7 60 0 0,0
26.09.2020 07:00:00 10,9 3,9 9,4 14,4 16,1 21 11 41 22 NNW 1013,0 60 0 0,0
26.09.2020 06:00:00 11,0 4,4 9,6 14,4 16,1 23 12 45 24 NNW 1013,0 60 0 0,0
26.09.2020 05:00:00 11,1 4,8 9,8 14,5 16,1 23 12 46 25 NNW 1013,1 60 0 0,0
26.09.2020 04:00:00 11,3 5,2 9,9 14,5 16,1 21 11 49 26 NNW 1013,1 60 0 0,0
26.09.2020 03:00:00 11,6 5,7 10,5 14,5 16,1 23 12 54 29 NNW 1013,3 60 0 0,0
26.09.2020 02:00:00 11,6 6,1 10,7 14,5 16,1 22 12 49 26 NNW 1013,4 60 0 0,0
26.09.2020 01:00:00 12,0 6,5 11,1 14,5 16,1 25 13 51 27 NW 1013,5 60 0 0,0
26.09.2020 00:00:00 12,2 6,2 11,4 14,6 16,2 26 14 55 30 NW 1013,4 60 0 0,0
25.09.2020 23:00:00 12,6 6,0 11,6 14,6 16,1 27 14 53 29 NW 1013,4 60 0 0,0
25.09.2020 22:00:00 13,0 5,2 12,1 14,6 16,1 31 17 63 34 NW 1013,0 60 0 0,0
25.09.2020 21:00:00 13,0 6,3 12,4 14,6 16,2 34 18 59 32 NW 1012,4 58 0 0,0
25.09.2020 20:00:00 13,5 5,6 12,6 14,6 16,2 30 16 56 30 NW 1011,8 60 14 0,0
25.09.2020 19:00:00 13,5 6,8 12,7 14,6 16,2 31 17 61 33 NW 1010,8 31 21 0,0
25.09.2020 18:00:00 14,0 5,9 14,0 14,6 16,2 32 18 59 32 NW 1010,5 20 40 0,0
25.09.2020 17:00:00 14,2 4,5 13,6 14,6 16,2 30 16 61 33 NW 1010,2 27 42 0,0
25.09.2020 16:00:00 14,2 4,5 14,5 14,5 16,2 27 15 64 34 NW 1009,6 42 37 0,0
25.09.2020 15:00:00 13,5 4,1 14,4 14,5 16,2 31 17 71 38 NW 1009,2 20 46 0,0
25.09.2020 14:00:00 13,0 5,4 12,9 14,5 16,2 29 16 66 35 NW 1008,6 20 41 0,0
25.09.2020 13:00:00 12,2 5,4 13,9 14,5 16,2 29 15 65 35 NW 1008,0 44 43 0,0
25.09.2020 12:00:00 12,0 5,2 11,5 14,5 16,2 29 16 62 33 NNW 1007,1 55 26 0,0
25.09.2020 11:00:00 11,2 6,7 11,0 14,6 16,2 24 13 55 30 NNW 1005,9 53 12 0,0
25.09.2020 10:00:00 11,0 6,7 10,1 14,6 16,2 25 14 49 26 NNW 1004,3 33 10 0,0
25.09.2020 09:00:00 11,2 6,3 9,6 14,6 16,3 23 13 48 26 NNW 1002,6 56 0 0,0
25.09.2020 08:00:00 10,8 5,7 9,0 14,7 16,3 24 13 49 26 NNW 1001,6 57 0 0,0
25.09.2020 07:00:00 10,7 6,6 9,2 14,7 16,3 19 11 53 29 NNW 1000,5 43 0 0,0
25.09.2020 06:00:00 10,7 7,2 9,0 14,7 16,3 23 12 51 27 NNW 999,4 42 0 0,0
25.09.2020 05:00:00 10,7 7,6 8,4 14,8 16,3 23 12 54 29 NNW 997,9 39 0 0,4
25.09.2020 04:00:00 9,9 7,0 8,5 14,8 16,3 29 16 51 27 N 996,3 46 0 0,2
25.09.2020 03:00:00 10,8 8,2 9,3 14,9 16,3 19 10 49 27 NW 994,1 47 0 0,8
25.09.2020 02:00:00 10,3 8,6 8,9 15,0 16,3 22 12 49 26 W 993,1 19 0 0,8
25.09.2020 01:00:00 10,2 8,6 8,9 15,1 16,3 22 12 45 24 WSW 992,8 31 0 0,6
25.09.2020 00:00:00 9,8 8,6 8,2 15,2 16,3 24 13 44 24 WSW 993,0 3,7 0 5,1
24.09.2020 23:00:00 9,1 8,2 8,1 15,2 16,3 29 16 55 30 SSW 993,8 5 0 0,8
24.09.2020 22:00:00 8,7 7,5 7,0 15,3 16,3 25 14 58 32 SSW 995,0 15 0 1,0
24.09.2020 21:00:00 9,0 6,1 6,8 15,4 16,3 20 11 32 18 SW 995,4 29 0 0,0
24.09.2020 20:00:00 9,2 6,6 7,7 15,4 16,2 18 10 31 17 WSW 995,7 35 23 0,0
24.09.2020 19:00:00 9,1 7,7 8,4 15,5 16,3 21 11 36 20 SW 995,6 30 18 0,8
24.09.2020 18:00:00 9,7 7,8 8,9 15,5 16,3 27 15 63 34 W 995,9 20 0 1,0
24.09.2020 17:00:00 11,5 9,2 10,5 15,5 16,3 18 10 31 17 SW 995,7 15 0 0,0
24.09.2020 16:00:00 10,6 8,5 10,1 15,6 16,3 21 12 34 18 SW 996,7 30 0 0,6
24.09.2020 15:00:00 10,4 8,5 9,4 15,6 16,3 24 13 59 32 WSW 997,9 24 0 1,2
24.09.2020 14:00:00 13,5 7,7 14,0 15,5 16,3 33 18 55 30 SW 998,3 25 18 0,0
24.09.2020 13:00:00 15,0 8,2 15,3 15,5 16,3 37 20 59 32 SW 998,6 20 47 0,0
24.09.2020 12:00:00 14,4 11,4 12,6 15,6 16,3 22 12 37 20 SSW 999,2 20 58 0,0
24.09.2020 11:00:00 11,2 9,3 10,0 15,6 16,3 19 11 43 23 SSW 999,7 20 2 1,0
24.09.2020 10:00:00 12,8 9,6 9,7 15,7 16,4 25 13 37 20 W 999,9 19 41 0,0
24.09.2020 09:00:00 10,5 9,3 9,3 15,7 16,4 23 12 54 29 SW 1000,3 17 3 0,8
24.09.2020 08:00:00 10,7 9,0 9,6 15,8 16,4 21 12 46 25 SW 999,8 27 0 0,0
24.09.2020 07:00:00 11,7 10,1 10,7 15,8 16,3 31 17 55 30 WSW 1000,4 3,9 0 1,2
24.09.2020 06:00:00 11,6 10,0 10,6 15,9 16,4 28 15 46 25 SSW 1000,5 13 0 0,4
24.09.2020 05:00:00 11,2 8,4 9,1 15,9 16,4 21 12 32 18 S 1001,7 38 0 0,0
24.09.2020 04:00:00 10,7 7,9 9,6 16,0 16,4 19 10 32 17 SSW 1002,7 39 0 0,0
24.09.2020 03:00:00 11,0 7,3 9,7 16,1 16,4 22 12 33 18 SW 1003,3 47 0 0,0
24.09.2020 02:00:00 11,0 6,9 8,9 16,1 16,3 17 9 26 14 SW 1003,8 48 0 0,0
24.09.2020 01:00:00 10,4 7,1 8,7 16,2 16,4 17 9 32 17 SW 1004,0 44 0 0,0
24.09.2020 00:00:00 11,2 7,1 9,7 16,3 16,4 21 11 32 17 W 1003,8 43 0 0,0
23.09.2020 23:00:00 11,3 7,6 10,1 16,3 16,4 21 12 39 21 W 1003,6 39 0 0,0
23.09.2020 22:00:00 11,5 7,6 10,3 16,4 16,3 24 13 50 27 W 1003,2 41 0 0,0
23.09.2020 21:00:00 12,2 8,1 11,1 16,5 16,3 27 14 51 28 W 1002,7 41 0 0,0
23.09.2020 20:00:00 12,6 7,9 11,4 16,5 16,4 28 15 58 32 W 1002,2 42 25 0,0
23.09.2020 19:00:00 13,5 7,9 12,8 16,5 16,4 32 17 49 26 W 1001,8 38 28 0,0
23.09.2020 18:00:00 14,5 12,4 13,5 16,5 16,4 28 15 43 23 W 1001,7 13 11 0,2
23.09.2020 17:00:00 13,9 12,9 13,9 16,5 16,4 29 16 46 25 W 1002,1 12 5 0,4
23.09.2020 16:00:00 16,2 14,2 15,7 16,5 16,4 24 13 44 24 WSW 1001,6 15 16 0,0
23.09.2020 15:00:00 17,9 13,4 20,2 16,4 16,4 28 15 45 25 WSW 1002,1 40 26 0,0
23.09.2020 14:00:00 19,2 14,7 17,2 16,4 16,4 27 14 45 25 SW 1002,2 34 16 0,0
23.09.2020 13:00:00 16,8 14,8 16,1 16,4 16,4 25 13 39 21 SW 1002,7 33 0 0,2
23.09.2020 12:00:00 17,0 14,6 16,9 16,5 16,4 26 14 40 22 SSW 1003,3 38 0 0,0
23.09.2020 11:00:00 16,0 14,5 15,4 16,5 16,4 18 10 31 17 S 1003,5 24 0 0,0
23.09.2020 10:00:00 15,3 14,2 15,0 16,5 16,4 19 10 37 20 SSW 1003,9 17 0 0,0
23.09.2020 09:00:00 15,0 14,2 14,5 16,5 16,4 17 9 27 14 SW 1004,2 15 0 0,0
23.09.2020 08:00:00 15,0 14,2 14,3 16,5 16,4 19 10 32 18 WSW 1004,1 14 0 0,0
23.09.2020 07:00:00 15,2 14,6 14,7 16,5 16,4 17 9 26 14 SW 1004,1 15 0 0,0
23.09.2020 06:00:00 15,3 14,7 14,8 16,5 16,4 18 10 29 16 WSW 1004,4 19 0 0,0
23.09.2020 05:00:00 15,2 14,6 14,7 16,5 16,4 19 10 30 16 SW 1004,6 38 0 0,0
23.09.2020 04:00:00 15,9 15,3 15,5 16,5 16,4 19 11 31 17 WSW 1004,9 4,8 0 1,2
23.09.2020 03:00:00 16,1 15,3 15,3 16,6 16,4 19 10 34 18 SSW 1005,3 18 0 0,0
23.09.2020 02:00:00 16,0 15,5 14,9 16,6 16,4 18 10 29 16 SSW 1005,8 12 0 0,0
23.09.2020 01:00:00 15,4 15,1 14,3 16,6 16,4 14 8 21 12 S 1006,4 5 0 0,0
23.09.2020 00:00:00 14,8 14,3 14,2 16,6 16,4 10 6 15 8 S 1007,0 3,7 0 0,0
22.09.2020 23:00:00 15,2 14,7 13,9 16,6 16,4 8 5 13 7 S 1007,7 4,0 0 0,0
22.09.2020 22:00:00 14,6 14,1 11,6 16,7 16,4 9 5 13 7 S 1008,1 5 0 0,0
22.09.2020 21:00:00 14,0 13,2 12,2 16,6 16,4 8 5 12 6 S 1008,7 5 0 0,0
22.09.2020 20:00:00 16,0 14,4 15,1 16,6 16,4 10 6 21 11 WSW 1008,7 12 16 0,0
22.09.2020 19:00:00 17,5 14,9 17,3 16,6 16,4 13 7 27 14 WSW 1008,7 20 12 0,0
22.09.2020 18:00:00 17,5 14,9 17,9 16,6 16,4 20 11 31 17 WSW 1009,1 22 12 0,0
22.09.2020 17:00:00 18,5 15,2 19,4 16,5 16,4 15 8 26 14 SW 1009,6 19 9 0,2
22.09.2020 16:00:00 18,6 15,8 19,2 16,5 16,4 17 9 27 14 SW 1010,2 16 1 0,0
22.09.2020 15:00:00 18,3 16,1 20,2 16,4 16,4 14 7 24 13 SW 1010,9 17 7 0,0
22.09.2020 14:00:00 18,2 16,4 19,9 16,4 16,4 16 9 23 12 SW 1011,4 14 0 0,0
22.09.2020 13:00:00 17,8 16,5 17,9 16,4 16,4 12 7 17 9 WSW 1011,9 16 1 0,0
22.09.2020 12:00:00 16,3 16,1 16,8 16,4 16,4 11 6 16 9 W 1012,5 2,7 0 0,0
22.09.2020 11:00:00 16,0 15,8 15,8 16,4 16,4 9 5 16 9 W 1012,9 0,2 0 0,0
22.09.2020 10:00:00 15,5 15,5 15,0 16,5 16,4 12 6 21 11 WNW 1013,1 0,2 0 0,0
22.09.2020 09:00:00 14,7 14,7 9,1 16,5 16,4 13 7 19 10 WNW 1013,1 0,1 0 0,0
22.09.2020 08:00:00 11,8 11,2 5,7 16,6 16,4 8 4 10 6 WSW 1013,0 1,1 0 0,0
22.09.2020 07:00:00 11,5 9,4 8,0 16,7 16,4 9 5 13 7 S 1013,2 13 0 0,0
22.09.2020 06:00:00 11,5 8,7 5,6 16,8 16,4 10 6 14 8 SSW 1013,6 14 0 0,0
22.09.2020 05:00:00 11,2 7,5 5,7 16,9 16,4 9 5 11 6 S 1014,0 15 0 0,0
22.09.2020 04:00:00 10,7 9,9 5,8 16,9 16,4 9 5 10 5 S 1014,5 11 0 0,0
22.09.2020 03:00:00 10,6 9,8 6,5 17,0 16,4 6 3 6 4 S 1015,0 4,1 0 0,0
22.09.2020 02:00:00 13,6 13,6 6,6 17,1 16,4 4 2 8 5 WSW 1015,5 0,1 0 0,0
22.09.2020 01:00:00 12,5 12,3 8,4 17,2 16,4 7 4 8 4 S 1016,1 0,1 0 0,0
22.09.2020 00:00:00 12,8 12,6 9,4 17,2 16,4 5 3 7 4 SSW 1016,4 0,1 0 0,2
21.09.2020 23:00:00 13,2 13,0 7,9 17,3 16,4 0 0 7 4 N 1016,7 0,1 0 0,0
21.09.2020 22:00:00 13,9 13,6 8,5 17,3 16,4 3 1 8 4 E 1016,5 0,1 0 0,0
21.09.2020 21:00:00 14,6 14,1 9,0 17,3 16,4 3 1 9 5 ESE 1016,4 0,4 0 0,0
21.09.2020 20:00:00 16,0 14,9 14,3 17,3 16,4 6 3 13 7 E 1016,1 4,1 29 0,0
21.09.2020 19:00:00 18,0 15,4 21,7 17,2 16,4 8 4 14 8 ENE 1016,1 8 60 0,0
21.09.2020 18:00:00 19,2 15,7 26,5 17,1 16,4 11 6 17 9 ENE 1016,3 10 60 0,0
21.09.2020 17:00:00 20,5 15,1 30,2 17,1 16,4 9 5 16 9 ENE 1016,5 17 60 0,0
21.09.2020 16:00:00 21,1 14,7 30,6 16,9 16,4 9 5 18 10 E 1016,9 19 60 0,0
21.09.2020 15:00:00 20,6 14,5 28,4 16,8 16,4 13 7 23 12 E 1017,1 15 60 0,0
21.09.2020 14:00:00 20,1 15,3 28,5 16,8 16,4 13 7 23 13 E 1017,4 16 60 0,0
21.09.2020 13:00:00 19,7 15,1 27,3 16,7 16,4 14 8 23 12 E 1017,5 15 60 0,0
21.09.2020 12:00:00 18,9 15,6 20,4 16,7 16,4 16 8 22 12 E 1017,5 14 41 0,0
21.09.2020 11:00:00 17,6 15,9 18,2 16,8 16,4 10 6 20 11 ENE 1017,7 9 6 0,0
21.09.2020 10:00:00 16,6 15,6 16,0 16,8 16,4 14 7 22 12 E 1017,4 7 2 0,0
21.09.2020 09:00:00 16,0 15,7 14,2 16,8 16,4 13 7 19 10 ENE 1017,3 5 0 0,0
21.09.2020 08:00:00 15,4 14,9 13,9 16,8 16,4 12 7 20 11 E 1016,8 4,3 0 0,0
21.09.2020 07:00:00 15,4 14,9 14,2 16,8 16,4 15 8 21 11 ENE 1016,7 5 0 0,0
21.09.2020 06:00:00 15,5 14,9 14,4 16,9 16,4 14 8 22 12 ENE 1016,9 9 0 0,0
21.09.2020 05:00:00 15,6 14,6 14,0 16,9 16,4 14 7 23 12 ENE 1016,8 13 0 0,0
21.09.2020 04:00:00 15,5 14,2 13,9 17,0 16,4 14 7 23 12 NE 1017,3 16 0 0,0
21.09.2020 03:00:00 16,0 14,0 13,8 17,0 16,4 14 8 24 13 E 1017,2 18 0 0,0
21.09.2020 02:00:00 15,5 13,5 13,4 17,0 16,4 14 8 20 11 ENE 1017,6 19 0 0,0
21.09.2020 01:00:00 16,1 12,8 14,5 17,1 16,4 13 7 24 13 E 1017,4 35 0 0,0
21.09.2020 00:00:00 16,3 13,0 14,4 17,1 16,4 16 9 27 15 E 1017,6 38 0 0,0
20.09.2020 23:00:00 16,9 13,2 15,1 17,1 16,4 18 10 31 17 ENE 1017,8 36 0 0,0
20.09.2020 22:00:00 17,3 13,8 15,1 17,1 16,4 18 10 31 17 ENE 1017,6 37 0 0,0
20.09.2020 21:00:00 17,1 13,0 15,0 17,1 16,4 17 9 26 14 ENE 1017,2 39 0 0,0
20.09.2020 20:00:00 17,2 15,0 16,0 17,1 16,4 13 7 25 14 ENE 1016,7 16 32 0,0
20.09.2020 19:00:00 18,3 15,2 21,1 17,1 16,4 16 9 30 16 ENE 1015,9 18 60 0,0
20.09.2020 18:00:00 19,0 15,7 24,6 17,0 16,4 20 11 33 18 ENE 1015,8 17 60 0,0
20.09.2020 17:00:00 19,7 16,2 23,5 16,9 16,4 23 12 36 19 E 1015,8 16 45 0,0
20.09.2020 16:00:00 19,0 15,3 23,7 16,9 16,4 21 11 35 19 NE 1016,1 19 10 0,0
20.09.2020 15:00:00 19,0 16,0 24,4 16,8 16,4 23 12 39 21 ENE 1016,2 16 47 0,0
20.09.2020 14:00:00 19,5 16,5 23,3 16,8 16,4 23 13 40 21 NE 1016,4 17 31 0,0
20.09.2020 13:00:00 19,0 16,0 23,4 16,8 16,4 23 12 38 20 ENE 1016,4 14 44 0,0

tt = temperature
td = dewpoint
tt 5cm = temperature 5cm
tt -20cm = temperature -20cm
tt -100cm = temperature -100cm
ff = wind speed
fx = gusts
dd = wind direction
ppp = reduced air pressure
vv = visibility
sd = sunshine duration
rr = precipitation

Next stations